Location: Dollnstein
(48.8736°N, 11.0728°E)
Time: 16:05:47
(UTC+00:00)

Daily predictions for brighter satellites

Satellite Brightness Start Highest point End
(mag) Time Altitude Azimuth Time Altitude Azimuth Time Altitude Azimuth
Cosmos 2315 Rocket 4.1 19:56:16 10° S 20:02:34 72° E 20:08:50 10° NNE
Cosmos 1709 Rocket 4.1 19:58:00 10° N 20:04:14 86° W 20:10:31 10° S
ARIANE 5 R/B 4.0 20:04:27 10° ESE 20:08:06 26° ENE 20:11:45 10° N
IRAS Rocket 4.3 20:05:39 10° NNE 20:11:16 69° ESE 20:16:48 10° S
USA 102 4.3 20:05:43 10° SE 20:11:47 24° ESE 20:14:27 10° ENE
MetOp-B 4.3 20:08:06 10° SSE 20:13:27 79° WSW 20:18:51 10° NNW
Cosmos 1607 3.9 20:08:21 10° SSW 20:14:34 78° SE 20:20:47 10° NE
Cosmos 2074 Rocket 4.5 20:08:53 10° N 20:14:57 47° ENE 20:20:56 10° SSE
USA 245 3.4 20:11:49 10° SSE 20:16:24 81° ENE 20:20:04 10° NNW
SL-8 R/B 3.7 20:12:38 10° W 20:17:28 85° S 20:22:18 10° E
NOSS 2-1 (E) 4.1 20:14:07 10° NW 20:18:37 88° NE 20:25:02 10° SE
Cosmos 1624 Rocket 4.1 20:15:09 10° SSW 20:20:23 87° WNW 20:25:38 10° NNE
Cosmos 2228 4.1 20:19:51 10° N 20:23:39 31° ENE 20:27:15 11° SE
Cosmos 1833 Rocket 3.8 20:19:20 10° SSE 20:23:43 24° ESE 20:28:08 10° NE
Meteor 1-24 Rocket 3.7 20:19:03 10° S 20:24:22 88° W 20:29:51 10° NNE
Cosmos 1536 Rocket 4.0 20:23:14 10° SSE 20:27:19 44° E 20:31:28 10° NNE
H-2A R/B 3.6 20:24:18 10° N 20:28:26 41° WNW 20:32:36 10° SW
ERS-1 Rocket 3.1 20:23:37 10° SSE 20:28:35 66° ENE 20:33:36 10° N
Cosmos 2084 3.2 20:25:11 10° SW 20:29:01 85° NW 20:32:54 10° NE
Cosmos 1975 Rocket 4.1 20:29:18 10° SSW 20:33:37 49° WNW 20:37:56 10° N
CARTOSAT-1 4.2 20:29:51 10° S 20:34:04 54° W 20:38:19 10° NNW
SPOT 3 Rocket 3.9 20:29:30 10° S 20:34:40 68° WSW 20:39:53 10° NNW
Cosmos 2154 Rocket 4.4 20:35:01 10° N 20:41:06 52° ENE 20:46:31 13° SSE
Cosmos 2056 Rocket 4.2 20:36:05 10° SW 20:41:25 62° WNW 20:46:50 10° NNE
ATLAS 5 CENTAUR R/B 4.3 20:32:14 10° NW 20:44:02 38° WSW 20:48:06 10° S
Cosmos 1741 Rocket 4.2 20:40:41 10° NNW 20:46:01 68° ENE 20:50:33 14° SSE
Cosmos 1271 Rocket 3.4 20:42:14 10° NNW 20:46:08 53° W 20:49:59 10° S
Cosmos 1420 Rocket 4.5 20:42:58 10° SSW 20:48:11 65° WNW 20:53:29 10° NNE
Cosmos 2082 Rocket 3.8 20:46:10 12° SE 20:48:52 17° E 20:52:20 10° ENE
Cosmos 1544 Rocket 4.3 20:45:52 10° NNW 20:50:04 50° W 20:54:15 10° SSW
Lacrosse 5 rocket 3.0 20:48:41 10° W 20:51:41 21° SW 20:54:36 11° S
Tiangong 3.1 20:51:15 10° SW 20:53:08 15° SSW 20:53:52 14° S
Cosmos 724 4.2 20:48:18 10° SSW 20:54:07 86° ESE 20:59:57 10° NE
Helios 1A Rocket 3.3 20:53:26 12° S 20:57:12 61° WSW 21:01:17 10° NNW
Cosmos 1726 Rocket 4.5 20:53:38 10° N 20:57:37 35° ENE 21:00:33 16° SE
USA 276 1.8 20:56:09 10° WSW 20:59:10 78° SSE 21:02:10 10° ENE
SPOT 5 3.1 20:55:22 11° S 20:59:37 57° W 21:03:54 10° NNW
X-37B 0.9 20:57:05 10° WSW 20:59:43 36° S 21:01:12 20° ESE
USA 267 3.5 20:54:47 10° ENE 21:01:00 43° SE 21:07:10 10° SSW
RESURS DK-1 2.3 21:03:42 10° NNW 21:07:51 88° WSW 21:10:41 20° SSE
Resurs 01 Rocket 4.3 21:10:38 10° WSW 21:12:40 13° W 21:14:43 10° WNW
Cosmos 1455 4.0 21:09:34 10° NNW 21:12:49 27° W 21:16:03 10° SSW
Cosmos 2184 Rocket 4.2 21:07:00 10° NNW 21:13:10 73° W 21:18:46 13° S
Cosmos 1850 Rocket 4.2 21:10:20 10° NNW 21:15:32 69° WSW 21:19:25 18° S
Cosmos 2344 4.3 21:09:01 10° NW 21:17:44 79° NE 21:28:41 13° SE
Terra 2.5 21:21:16 14° S 21:25:13 50° W 21:29:52 10° NNW
Lacrosse 5 3.2 21:21:29 10° WNW 21:25:47 28° SW 21:28:44 16° S
FALCON 9 DEB 4.5 21:25:35 10° WNW 21:28:40 38° N 21:31:45 10° ENE
COSMOS 2406 3.6 21:25:53 17° S 21:30:02 46° ESE 21:35:31 10° NE
Cosmos 1331 Rocket 4.0 21:25:33 11° SSW 21:30:35 75° ESE 21:35:54 10° NNE
SL-16 R/B 4.1 21:26:19 10° N 21:30:45 22° NE 21:35:08 10° E
Cosmos 2369 4.0 21:25:09 10° NNW 21:30:52 64° ENE 21:34:58 19° SE
Cosmos 2341 Rocket 4.2 21:27:07 10° N 21:33:25 61° ENE 21:37:44 21° SSE
Cosmos 2058 Rocket 3.6 21:29:59 10° N 21:34:16 49° ENE 21:36:44 23° SE
Cosmos 1892 Rocket 3.8 21:33:27 23° SSE 21:35:58 55° E 21:40:16 10° NNE
USA 234 3.4 21:29:45 10° ESE 21:36:18 79° NNE 21:42:53 10° NW
ATLAS 2AS CENTAUR R/B 4.0 21:31:12 10° NW 21:37:01 29° WSW 21:41:57 13° SSW
Cosmos 1980 Rocket 2.5 21:31:23 10° NNW 21:37:04 63° ENE 21:41:03 20° SE
Cosmos 1697 Rocket 2.8 21:33:33 10° NNW 21:39:10 72° WSW 21:42:50 22° SSE
Cosmos 1892 3.5 21:38:17 26° SE 21:39:39 35° E 21:43:07 10° NNE
Cosmos 1900 4.4 21:34:31 10° NW 21:39:43 80° SW 21:42:53 24° SSE
Cosmos 1452 Rocket 4.2 21:37:45 10° SW 21:42:54 55° WNW 21:48:06 10° NNE
ARIANE 5 R/B 3.6 21:41:11 16° SSW 21:44:22 41° W 21:48:35 10° NNW
Cosmos 1408 2.8 21:44:51 32° SSE 21:46:02 47° E 21:49:22 10° NNE
Meteor 1-11 4.3 21:49:11 22° S 21:52:48 66° E 21:58:21 10° NNE
GP-B 3.1 21:48:27 10° N 21:52:55 76° E 21:55:18 27° S
SAR-Lupe-4 3.6 21:49:45 10° NNE 21:53:21 80° WNW 21:55:20 25° SSW
Cosmos 1110 Rocket 4.3 21:48:34 10° SSW 21:53:48 68° WNW 21:59:07 10° NNE
Cosmos 1867 3.8 21:50:50 10° NW 21:56:19 69° NE 22:00:06 20° SE
Cosmos 1302 Rocket 4.0 21:54:27 22° S 21:57:43 64° ESE 22:02:52 10° NNE
Cosmos 1328 4.3 21:55:44 19° SSW 21:58:29 58° WNW 22:02:27 10° N
SL-8 R/B 4.0 21:55:11 10° W 21:59:49 48° SSW 22:02:04 27° SE
Spot 4 4.0 22:00:14 26° SSE 22:02:51 66° ENE 22:07:36 10° N
Cosmos 2181 Rocket 4.1 22:02:46 24° SSE 22:06:31 64° E 22:12:40 10° NNE
Cosmos 1833 Rocket 3.1 22:01:38 10° SW 22:07:12 62° WNW 22:12:48 10° NNE
Cosmos 2084 Rocket 3.2 22:03:52 10° NW 22:07:45 72° SW 22:09:23 34° SSE
Cosmos 192 4.3 22:05:44 20° SSW 22:09:07 88° ESE 22:14:03 10° NNE
Cosmos 2322 Rocket 3.8 22:04:31 10° NNW 22:09:25 29° NE 22:14:18 10° ESE
ATLAS 5 CENTAUR R/B 2.8 22:10:07 20° ESE 22:10:07 20° ESE 22:12:49 10° ENE
SJ 16-02 3.3 22:09:26 10° N 22:12:55 22° NE 22:16:14 11° ESE
Okean 1-7 Rocket 3.9 22:11:18 31° SSE 22:13:10 54° E 22:17:33 10° NNE
Cosmos 2278 3.8 22:09:28 10° NNW 22:15:13 73° ENE 22:18:44 24° SE
Cosmos 968 Rocket 3.8 22:19:29 10° NNW 22:24:35 57° WSW 22:27:10 28° S
ASTEX 1 4.3 22:26:55 10° N 22:31:40 44° WNW 22:35:10 17° SW
Cosmos 2082 Rocket 2.2 22:27:58 19° SSW 22:32:10 88° WNW 22:37:55 10° NNE
X-37B 3.1 22:32:25 10° WSW 22:32:25 10° WSW 22:32:25 10° WSW
USA 276 2.2 22:31:56 10° W 22:34:54 68° N 22:37:51 10° E
ADEOS Rocket 3.5 22:30:44 25° SSE 22:35:24 82° ENE 22:43:08 10° NNW
Aureole 1 Rocket 4.5 22:31:13 10° NNW 22:38:09 81° ENE 22:43:38 23° SSE
Cosmos 1825 2.1 22:38:07 41° SSW 22:39:21 83° W 22:43:07 10° N
Cosmos 1758 Rocket 4.1 22:37:58 32° SE 22:39:25 44° E 22:43:35 10° NNE
Cosmos 1932 4.5 22:35:39 24° SSW 22:39:26 63° ESE 22:45:42 10° NE
Nadezhda 3 Rocket 4.5 22:37:36 26° SSE 22:40:47 47° E 22:46:39 10° NNE
ERS-2 3.0 22:37:31 10° NNE 22:40:49 33° E 22:41:23 31° ESE
USA 267 3.4 22:37:46 10° NE 22:44:17 75° NNW 22:50:49 10° WSW
Cosmos 2360 Rocket 3.6 22:43:10 10° NNW 22:48:21 35° NE 22:53:30 10° ESE
Cosmos 1812 Rocket 3.5 22:45:07 10° N 22:49:36 82° ENE 22:51:22 37° SSE
Cosmos 1633 2.4 22:51:55 51° SSE 22:52:37 70° E 22:56:06 10° NNE
ALOS 2 2.8 22:53:39 36° SSW 22:55:18 63° WSW 22:59:41 10° NNW
H-2A R/B 3.5 22:51:10 10° NNE 22:55:23 79° WNW 22:57:07 35° SSW
Cosmos 1606 3.0 22:56:17 10° N 23:00:06 58° ENE 23:01:19 38° SE
Cosmos 1486 Rocket 4.2 22:56:22 10° NNW 23:01:31 61° WSW 23:03:45 33° S
Cosmos 1602 Rocket 3.5 23:02:19 37° SSW 23:03:59 80° W 23:08:20 10° N
FALCON 9 DEB 3.0 23:01:55 10° WNW 23:05:12 80° NNE 23:06:28 34° ESE
Cosmos 1869 4.3 23:04:01 10° NNW 23:07:33 34° W 23:08:43 27° SW
BREEZE-M DEB (TANK) 4.1 23:08:47 10° W 23:12:28 81° SSW 23:28:27 10° ESE
Cosmos 1992 Rocket 4.2 23:09:46 25° SW 23:12:52 69° WNW 23:18:08 10° NNE
SL-16 R/B 2.1 23:09:54 10° NNW 23:15:37 86° WSW 23:18:41 29° SSE
Cosmos-2242 3.1 23:14:35 10° NNW 23:18:47 63° W 23:20:11 39° SSW
USA 234 3.7 23:16:55 28° S 23:19:40 40° SW 23:25:48 10° WNW
Cosmos 2058 3.1 23:18:20 39° SSE 23:19:41 60° E 23:23:49 10° NNE
Cosmos 1980 Rocket 3.6 23:16:08 10° NW 23:20:37 24° WSW 23:22:48 19° SW
Cosmos 1354 Rocket 4.0 23:21:08 10° NNW 23:26:28 75° WSW 23:28:54 33° S
Cosmos 2219 Rocket 3.8 23:23:00 10° NNW 23:28:04 32° NE 23:33:08 10° ESE
CZ-2D R/B 4.3 23:26:19 10° ENE 23:28:37 13° E 23:30:55 10° ESE
Cosmos 1953 Rocket 4.0 23:27:02 34° SSE 23:28:41 53° E 23:33:01 10° NNE
Resurs 1-4 Rocket 4.3 23:30:32 10° NE 23:33:34 15° E 23:36:37 10° ESE
Gbstr 26 Del rocket 4.4 23:34:00 25° SE 23:34:17 25° SE 23:38:33 10° E
BREEZE-M DEB (TANK) 3.1 23:29:01 10° WSW 23:37:11 86° SSE 23:40:05 10° E
SL-16 R/B 4.4 23:32:42 10° ESE 23:37:40 26° NE 23:42:38 10° N
Cosmos 1503 Rocket 4.4 23:33:31 10° NNW 23:38:38 49° WSW 23:40:43 32° SSW
Cosmos 1825 Rocket 3.5 23:39:29 38° SSW 23:41:06 76° W 23:45:27 10° N
Cosmos 1934 Rocket 3.9 23:35:54 10° N 23:42:01 87° W 23:45:24 28° S
Meteor 2-2 Rocket 4.4 23:36:20 10° NNW 23:42:21 81° W 23:45:37 29° S
Cosmos 1340 Rocket 2.8 23:41:37 42° SSE 23:42:47 68° E 23:46:44 10° NNE
BREEZE-M DEB (TANK) 3.0 23:45:28 43° SSE 23:45:45 44° SE 23:51:24 10° ENE
Cosmos 972 Rocket 4.1 23:42:18 10° NNW 23:47:24 78° ENE 23:50:42 24° SSE
Geosat 4.2 23:46:28 18° SE 23:50:12 70° ENE 23:55:12 10° NNW
SJ 16-02 1.7 23:47:27 10° NNW 23:51:45 51° WSW 23:53:10 36° SSW
Cosmos 1777 Rocket 4.0 23:47:12 10° NNW 23:52:28 69° WSW 23:55:00 31° S
Cosmos 2322 Rocket 2.3 23:48:17 10° NNW 23:53:53 63° WSW 23:56:45 29° S
ATLAS 5 CENTAUR R/B 2.0 23:51:32 20° WSW 23:53:54 50° NW 23:58:09 10° NE
COSMOS 2487 4.2 23:55:07 16° ESE 23:55:28 17° E 23:57:31 10° ENE
